Вернуться в каталог

STARLINK-2590

АктивенСвязьVLEO
NORAD 48397·PAYLOAD·🇺🇸 United States

Запущен May 4, 2021 с Cape Canaveral Space Force Station

Loading…

Ближайшие Пролёты (ближайшие 24 часа)

TLE

СвежийSource: CelesTrak SupGP

Эпоха: Sep 15, 2026, 00:57 UTC

1 48397C 21038AW  26258.04006944 -.00012065  00000+0 -38805-3 0  2585
2 48397  53.1592 171.4468 0001377  86.4869 330.9501 15.31703283    13

Отслеживайте STARLINK-2590 в реальном времени с AllMySat

Download on the App Store